Lid_Strength_Index
13 14 14 15 15 15 15 15 15 15 15 15 15 15 15 17 17 17 17 17 18 18 18 18 18 19 19 20 20 20 20 19
12 13 13 14 15 14 15 15 15 15 15 15 15 15 16 17 16 17 17 18 18 18 18 19 19 19 19 20 20 20 20 20
11 11 12 13 14 14 14 15 14 15 15 15 15 16 16 16 17 17 17 18 18 18 18 19 19 19 19 20 20 20 21 20
11 11 11 11 12 13 14 14 14 15 16 16 16 16 16 16 17 17 17 18 18 18 19 19 19 19 19 20 20 20 20 21
12 12 11 11 11 12 12 13 15 15 16 16 16 16 15 16 17 17 18 18 18 18 18 19 19 20 20 20 20 21 21 21
13 12 11 12 11 11 11 13 15 15 15 15 15 15 16 16 17 18 18 17 18 19 19 19 19 20 20 20 21 21 22 21
13 13 13 11 12 12 12 12 15 15 15 14 15 16 16 16 17 18 18 18 18 19 19 19 19 16 16 19 21 21 21 22
12 12 12 12 11 12 13 13 13 14 14 15 17 16 17 17 18 18 18 18 19 19 19 19 19 15 15 17 20 21 21 21
11 12 12 11 11 11 12 13 14 14 14 16 16 16 17 18 19 19 18 19 19 19 19 19 19 15 15 16 20 20 20 20
12 12 11 11 11 12 13 13 14 16 16 17 17 17 19 19 18 18 19 19 19 18 19 19 19 15 14 16 20 19 20 20
12 12 12 12 11 12 12 13 14 16 15 17 18 19 18 18 19 18 18 18 18 19 19 19 20 15 14 16 19 20 20 19
14 14 13 12 12 13 12 13 14 17 19 20 20 20 20 18 19 19 19 19 20 20 20 20 19 16 13 14 19 20 20 20
15 15 15 15 14 14 14 12 13 17 19 20 21 20 20 20 21 19 19 20 21 21 22 21 20 16 13 13 16 16 20 20
16 17 16 15 16 17 16 15 13 13 16 18 18 20 19 19 20 20 20 21 22 22 22 22 21 18 14 13 15 16 20 19
17 18 18 17 16 17 16 15 17 15 15 17 19 19 20 20 21 20 21 21 21 22 21 22 21 21 17 16 15 16 18 17
18 19 19 18 18 18 18 18 19 18 16 17 18 19 20 20 20 20 19 19 20 20 20 22 22 21 18 17 16 17 18 23
19 20 20 20 20 20 20 21 21 21 19 16 17 19 20 20 21 17 17 17 16 16 18 19 18 17 16 15 15 16 17 23
19 20 21 22 22 21 21 21 22 22 20 17 17 18 20 21 21 22 19 16 16 15 15 16 17 16 15 15 15 15 17 24
20 21 21 22 23 22 22 21 21 21 20 19 16 18 19 20 21 21 21 20 20 15 16 16 15 15 14 15 15 17 23 26
22 23 23 23 23 21 21 21 21 20 19 18 16 17 18 19 21 21 21 20 19 18 16 16 15 14 14 14 19 25 26 27